Location: Columbus
(29.5618°N, 96.6770°W)
Time: 02:05:35
(UTC-05:00)

Iridium 59 - Visible Passes

Search period start: 30 March 2015 00:00
Search period end: 09 April 2015 00:00
Orbit: 776 x 779 km, 86.4° (Epoch: 29 March)

Date Brightness Start Highest point End Pass type
(mag) Time Alt. Az. Time Alt. Az. Time Alt. Az.
30 Mar 7.8 05:42:21 10° SE 05:45:51 19° E 05:49:33 10° NE visible
31 Mar 5.0 06:47:34 10° S 06:52:45 70° W 06:57:57 10° N visible
01 Apr 5.7 06:14:11 10° SSE 06:19:16 58° E 06:24:23 10° N visible
02 Apr 7.1 05:41:29 10° SE 05:45:51 29° E 05:50:19 10° NNE visible
03 Apr 8.0 05:09:54 10° ESE 05:12:29 14° E 05:15:23 10° NE visible
03 Apr 5.3 06:47:54 10° SSW 06:52:53 45° W 06:57:51 10° NNW visible
04 Apr 5.0 06:14:07 10° S 06:19:19 89° E 06:24:33 10° N visible
05 Apr 6.2 05:40:59 10° SSE 05:45:51 44° E 05:50:48 10° NNE visible
06 Apr 7.4 05:08:37 10° SE 05:12:28 22° E 05:16:29 10° NE visible
07 Apr 8.1 04:38:18 10° E 04:39:07 11° E 04:40:22 10° ENE visible
07 Apr 5.0 06:14:17 10° SSW 06:19:24 60° W 06:24:33 10° N visible
08 Apr 5.3 05:40:45 10° S 05:45:54 68° E 05:51:05 10° N visible
